ISS [Segment 01] 1 25544C 98067A 22175.50000000 -.00037712 00000+0 -66218-3 0 13 2 25544 51.6427 300.3708 0004388 297.5555 231.7933 15.49879516 13 ISS [Segment 02] 1 25544C 98067A 22175.75000000 -.00045929 00000+0 -80684-3 0 23 2 25544 51.6409 299.1343 0004418 302.4069 182.7485 15.49868312 12 ISS [Segment 03] 1 25544C 98067A 22176.00000000 .00066035 00000+0 11591-2 0 32 2 25544 51.6425 297.8968 0004577 303.9222 137.0268 15.49863834 17 ISS [Segment 04] 1 25544C 98067A 22176.25000000 .00098001 00000+0 17215-2 0 47 2 25544 51.6402 296.6549 0004346 301.5414 95.2258 15.49835377 10 ISS [Segment 05] 1 25544C 98067A 22176.50000000 -.00061859 00000+0 -10856-2 0 53 2 25544 51.6425 295.4182 0004379 302.0636 50.4965 15.49899813 16 ISS [Segment 06] 1 25544C 98067A 22176.75002091 -.00040182 00000+0 -71012-3 0 61 2 25544 51.6405 294.1815 0004117 297.1520 11.3312 15.49699304 14 ISS [Segment 07] 1 25544C 98067A 22177.00002091 .00039767 00000+0 70209-3 0 73 2 25544 51.6425 292.9444 0004324 298.1888 325.9364 15.49706109 11 ISS [Segment 08] 1 25544C 98067A 22177.25002091 .00062247 00000+0 10998-2 0 88 2 25544 51.6403 291.7026 0004124 295.3554 284.4368 15.49680327 13 ISS [Segment 09] 1 25544C 98067A 22177.50277778 -.00001131 00000+0 -19970-4 0 91 2 25544 51.6425 290.4530 0004160 296.4371 254.3956 15.49717152 18 ISS [Segment 10] 1 25544C 98067A 22177.75277778 .00037284 00000+0 65854-3 0 107 2 25544 51.6406 289.2162 0004239 300.6623 205.8416 15.49694703 17 ISS [Segment 11] 1 25544C 98067A 22178.00277778 .00023460 00000+0 41390-3 0 117 2 25544 51.6429 287.9791 0004394 301.8837 160.2733 15.49729209 13 ISS [Segment 12] 1 25544C 98067A 22178.25277778 .00132120 00000+0 23325-2 0 126 2 25544 51.6411 286.7370 0004132 298.9428 118.8991 15.49685744 16 ISS [Segment 13] 1 25544C 98067A 22178.50277778 -.00012268 00000+0 -21642-3 0 138 2 25544 51.6430 285.5013 0004187 300.9341 72.5734 15.49741583 11 ISS [Segment 14] 1 25544C 98067A 22178.75277778 .00024921 00000+0 43986-3 0 148 2 25544 51.6412 284.2644 0004259 305.5084 23.6873 15.49717626 14 ISS [Segment 15] 1 25544C 98067A 22179.00277778 -.00022998 00000+0 -40548-3 0 153 2 25544 51.6432 283.0271 0004476 305.9690 338.8977 15.49759057 17 ISS [Segment 16] 1 25544C 98067A 22179.25277778 .00096302 00000+0 16989-2 0 160 2 25544 51.6415 281.7850 0004132 304.1440 296.4224 15.49716089 11 ISS [Segment 17] 1 25544C 98067A 22179.50347222 .00045896 00000+0 80921-3 0 171 2 25544 51.6430 280.5463 0004243 306.7997 253.3329 15.49743251 12 ISS [Segment 18] 1 25544C 98067A 22179.75347222 .00069495 00000+0 12258-2 0 187 2 25544 51.6410 279.3093 0004335 310.3526 205.4818 15.49724310 12 ISS [Segment 19] 1 25544C 98067A 22180.00347222 -.00038361 00000+0 -67603-3 0 193 2 25544 51.6425 278.0718 0004446 311.0604 160.4605 15.49776803 14 ISS [Segment 20] 1 25544C 98067A 22180.25451389 .00142704 00000+0 25157-2 0 204 2 25544 51.6411 276.8248 0004079 308.0924 124.9570 15.49723910 13 ISS [Segment 21] 1 25544C 98067A 22180.50451389 .00024283 00000+0 42788-3 0 214 2 25544 51.6422 275.5898 0004218 311.1702 77.5806 15.49766117 17 ISS [Segment 22] 1 25544C 98067A 22180.75451389 .00051086 00000+0 90055-3 0 223 2 25544 51.6405 274.3525 0004379 314.3552 30.1109 15.49746412 15 ISS [Segment 23] 1 25544C 98067A 22181.00451389 -.00087224 00000+0 -15363-2 0 236 2 25544 51.6417 273.1150 0004496 313.7565 346.4113 15.49804010 13 ISS [Segment 24] 1 25544C 98067A 22181.25451389 .00086234 00000+0 15192-2 0 242 2 25544 51.6409 271.8731 0004118 311.3893 304.5032 15.49756979 18 ISS [Segment 25] 1 25544C 98067A 22181.50451389 .00071743 00000+0 12634-2 0 258 2 25544 51.6415 270.6381 0004267 314.8141 256.8009 15.49769743 18 ISS [Segment 26] 1 25544C 98067A 22181.75451389 .00068262 00000+0 12026-2 0 263 2 25544 51.6406 269.4006 0004435 317.5301 209.8118 15.49759877 19 ISS [Segment 27] 1 25544C 98067A 22182.00451389 -.00107049 00000+0 -18846-2 0 278 2 25544 51.6416 268.1627 0004552 317.5846 165.4764 15.49822277 18 ISS [Segment 28] 1 25544C 98067A 22182.25451389 .00118713 00000+0 20898-2 0 284 2 25544 51.6415 266.9209 0004150 315.4741 123.3270 15.49769854 10 ISS [Segment 29] 1 25544C 98067A 22182.50451389 .00000762 00000+0 13403-4 0 293 2 25544 51.6416 265.6859 0004335 319.9566 74.5800 15.49806689 11 ISS [Segment 30] 1 25544C 98067A 22182.75451389 .00053659 00000+0 94459-3 0 304 2 25544 51.6410 264.4483 0004496 321.9802 28.3006 15.49784456 11 ISS [Segment 31] 1 25544C 98067A 22183.00451389 -.00102842 00000+0 -18095-2 0 316 2 25544 51.6413 263.2098 0004587 321.5909 344.4292 15.49836517 13 ISS [Segment 32] 1 25544C 98067A 22183.25451389 .00064423 00000+0 11332-2 0 321 2 25544 51.6415 261.9687 0004188 320.2781 301.4920 15.49804489 19 ISS [Segment 33] 1 25544C 98067A 22183.50451389 .00015250 00000+0 26825-3 0 338 2 25544 51.6411 260.7336 0004367 324.6566 252.8706 15.49816494 11 ISS [Segment 34] 1 25544C 98067A 22183.75555556 .00067464 00000+0 11869-2 0 342 2 25544 51.6407 259.4907 0004562 326.5457 212.5534 15.49797655 11 ISS [Segment 35] 1 25544C 98067A 22184.00555556 -.00147667 00000+0 -25975-2 0 351 2 25544 51.6402 258.2520 0004566 326.3567 168.4962 15.49855421 18 ISS [Segment 36] 1 25544C 98067A 22184.25555556 .00077583 00000+0 13641-2 0 363 2 25544 51.6409 257.0113 0004186 324.5232 126.0917 15.49814158 19 ISS [Segment 37] 1 25544C 98067A 22184.50555556 -.00052823 00000+0 -92870-3 0 376 2 25544 51.6401 255.7761 0004419 329.0488 77.3307 15.49846709 15 ISS [Segment 38] 1 25544C 98067A 22184.75555556 .00056701 00000+0 99699-3 0 387 2 25544 51.6403 254.5384 0004581 330.0056 32.1432 15.49815856 15 ISS [Segment 39] 1 25544C 98067A 22185.00555556 -.00097144 00000+0 -17081-2 0 399 2 25544 51.6395 253.2992 0004541 329.2641 348.6558 15.49854454 13 ISS [Segment 40] 1 25544C 98067A 22185.25555556 .00031703 00000+0 55708-3 0 404 2 25544 51.6409 252.0589 0004220 327.4893 306.1993 15.49842176 11 ISS [Segment 41] 1 25544C 98067A 22185.50555556 -.00055922 00000+0 -98279-3 0 414 2 25544 51.6398 250.8233 0004410 332.2997 257.1704 15.49858823 11 ISS [Segment 42] 1 25544C 98067A 22185.75555556 .00092954 00000+0 16335-2 0 428 2 25544 51.6408 249.5856 0004650 332.8633 212.3880 15.49823083 16 ISS [Segment 43] 1 25544C 98067A 22186.00555556 -.00126991 00000+0 -22321-2 0 431 2 25544 51.6398 248.3458 0004606 332.7406 168.2941 15.49871945 14 ISS [Segment 44] 1 25544C 98067A 22186.25555556 .00018113 00000+0 31814-3 0 441 2 25544 51.6414 247.1059 0004286 331.9963 124.8200 15.49857466 18 ISS [Segment 45] 1 25544C 98067A 22186.50555556 -.00106784 00000+0 -18759-2 0 456 2 25544 51.6403 245.8702 0004525 337.0362 75.5714 15.49882261 15 ISS [Segment 46] 1 25544C 98067A 22186.75555556 .00066022 00000+0 11596-2 0 464 2 25544 51.6414 244.6326 0004705 337.2101 31.1891 15.49843948 12 ISS [Segment 47] 1 25544C 98067A 22187.00555556 -.00050327 00000+0 -88433-3 0 472 2 25544 51.6398 243.3921 0004580 337.4562 346.7432 15.49861165 11 ISS [Segment 48] 1 25544C 98067A 22187.25555556 -.00006804 00000+0 -11946-3 0 486 2 25544 51.6417 242.1531 0004348 336.5529 303.4320 15.49876470 13 ISS [Segment 49] 1 25544C 98067A 22187.50555556 -.00102606 00000+0 -18021-2 0 492 2 25544 51.6401 240.9173 0004559 341.3831 254.4054 15.49887883 17 ISS [Segment 50] 1 25544C 98067A 22187.75555556 .00087634 00000+0 15386-2 0 503 2 25544 51.6412 239.6797 0004766 341.4002 210.1874 15.49849522 14 ISS [Segment 51] 1 25544C 98067A 22188.00555556 -.00072910 00000+0 -12808-2 0 512 2 25544 51.6391 238.4389 0004578 341.3304 166.0640 15.49873533 18 ISS [Segment 52] 1 25544C 98067A 22188.25555556 -.00043362 00000+0 -76113-3 0 529 2 25544 51.6413 237.2006 0004365 340.9899 122.1980 15.49890325 12 ISS [Segment 53] 1 25544C 98067A 22188.50555556 -.00118354 00000+0 -20782-2 0 532 2 25544 51.6395 235.9645 0004607 344.5970 74.4018 15.49897822 14 ISS [Segment 54] 1 25544C 98067A 22188.75555556 .00085571 00000+0 15018-2 0 548 2 25544 51.6412 234.7270 0004768 344.6920 30.1124 15.49861359 12 ISS [Segment 55] 1 25544C 98067A 22189.00555556 .00015385 00000+0 27021-3 0 552 2 25544 51.6391 233.4858 0004515 344.7832 345.8418 15.49859733 14 ISS [Segment 56] 1 25544C 98067A 22189.25555556 -.00028506 00000+0 -50016-3 0 561 2 25544 51.6414 232.2478 0004373 344.1181 302.3058 15.49898281 17 ISS [Segment 57] 1 25544C 98067A 22189.50555556 -.00092525 00000+0 -16241-2 0 573 2 25544 51.6397 231.0115 0004628 348.3613 253.8842 15.49900513 14 ISS [Segment 58] 1 25544C 98067A 22189.75555556 .00091709 00000+0 16086-2 0 589 2 25544 51.6417 229.7740 0004806 347.3101 210.7487 15.49874581 16 ISS [Segment 59] 1 25544C 98067A 22190.00555556 .00001606 00000+0 28198-4 0 596 2 25544 51.6396 228.5322 0004575 347.8846 166.0043 15.49877581 13 ISS [Segment 60] 1 25544C 98067A 22190.25555556 -.00070550 00000+0 -12374-2 0 608 2 25544 51.6418 227.2948 0004470 348.5368 121.1647 15.49918029 14